| time (UTC) | temp F | wind direction | speed knots | gust knots | rain 1hr in | rain 24hr in | rain mn in | humidity % | barometer mb |
| 20260508050907 | 84 | 0.0 | 0.0 | 0.00 | 0.00 | 0.00 | 74 | 1012.0 | |
| 20260508045856 | 84 | 0.0 | 0.0 | 0.00 | 0.00 | 0.00 | 74 | 1012.1 | |
| 20260508044846 | 84 | 0.0 | 0.0 | 0.00 | 0.00 | 0.00 | 72 | 1012.1 | |
| 20260508043835 | 86 | 0.0 | 0.0 | 0.00 | 0.00 | 0.00 | 70 | 1012.2 | |
| 20260508042824 | 86 | 0.0 | 0.0 | 0.00 | 0.00 | 0.00 | 70 | 1012.5 | |
| 20260508041814 | 86 | 0.0 | 0.0 | 0.00 | 0.00 | 0.00 | 67 | 1012.5 | |
| 20260508040802 | 86 | 0.0 | 0.0 | 0.00 | 0.00 | 0.00 | 71 | 1012.5 | |
| 20260508035752 | 86 | 0.0 | 0.0 | 0.00 | 0.00 | 0.00 | 69 | 1012.6 | |
| 20260508034742 | 84 | 0.0 | 0.0 | 0.00 | 0.00 | 0.00 | 71 | 1012.7 | |
| 20260508033731 | 84 | 0.0 | 0.0 | 0.00 | 0.00 | 0.00 | 69 | 1012.8 | |
| 20260508032720 | 0 | 0.0 | 0.0 | 0.00 | 0.00 | 0.00 | |||
| 20260508031710 | 82 | 0.0 | 0.0 | 0.00 | 0.00 | 0.00 | 76 | 1013.3 | |
| 20260508030659 | 82 | 0.0 | 0.0 | 0.00 | 0.00 | 0.00 | 78 | 1013.5 | |
| 20260508025649 | 82 | 0.0 | 0.0 | 0.00 | 0.00 | 0.00 | 80 | 1013.6 | |
| 20260508024639 | 82 | 0.0 | 0.0 | 0.00 | 0.00 | 0.00 | 73 | 1013.7 | |
| 20260508023628 | 82 | 0.0 | 0.0 | 0.00 | 0.00 | 0.00 | 74 | 1013.8 | |
| 20260508022618 | 82 | 0.0 | 0.0 | 0.00 | 0.00 | 0.00 | 74 | 1014.0 | |
| 20260508021607 | 82 | 0.0 | 0.0 | 0.00 | 0.00 | 0.00 | 72 | 1014.0 | |
| 20260508020556 | 82 | 0.0 | 0.0 | 0.00 | 0.00 | 0.00 | 73 | 1014.0 | |
| 20260508015546 | 82 | 0.0 | 0.0 | 0.00 | 0.00 | 0.00 | 73 | 1014.0 | |
| 20260508014535 | 82 | 0.0 | 0.0 | 0.00 | 0.00 | 0.00 | 74 | 1014.0 | |
| 20260508013524 | 82 | 0.0 | 0.0 | 0.00 | 0.00 | 0.00 | 74 | 1014.1 | |
| 20260508012513 | 82 | 0.0 | 0.0 | 0.00 | 0.00 | 0.00 | 73 | 1013.8 | |
| 20260508011500 | 82 | 0.0 | 0.0 | 0.00 | 0.00 | 0.00 | 75 | 1013.6 | |
| 20260508010448 | 82 | 0.0 | 0.0 | 0.00 | 0.00 | 0.00 | 74 | 1013.6 | |
| 20260508005437 | 81 | 0.0 | 0.0 | 0.00 | 0.00 | 0.00 | 73 | 1013.6 | |
| 20260508004426 | 81 | 0.0 | 0.0 | 0.00 | 0.00 | 0.00 | 76 | 1013.6 | |
| 20260508003415 | 81 | 0.0 | 0.0 | 0.00 | 0.00 | 0.00 | 79 | 1013.6 | |
| 20260508002405 | 0 | 0.0 | 0.0 | 0.00 | 0.00 | 0.00 | |||
| 20260508001355 | 79 | 0.0 | 0.0 | 0.00 | 0.00 | 0.00 | 81 | 1013.6 | |
| 20260508000343 | 79 | 0.0 | 0.0 | 0.00 | 0.00 | 0.00 | 81 | 1013.6 | |
| 20260507235333 | 79 | 0.0 | 0.0 | 0.00 | 0.00 | 0.00 | 84 | 1013.3 | |
| 20260507234322 | 77 | 0.0 | 0.0 | 0.00 | 0.00 | 0.00 | 88 | 1013.2 | |
| 20260507233312 | 75 | 0.0 | 0.0 | 0.00 | 0.00 | 0.00 | 89 | 1013.2 | |
| 20260507232301 | 75 | 0.0 | 0.0 | 0.00 | 0.00 | 0.00 | 91 | 1013.2 | |
| 20260507231248 | 75 | 0.0 | 0.0 | 0.00 | 0.00 | 0.00 | 92 | 1013.1 | |
| 20260507230238 | 75 | 0.0 | 0.0 | 0.00 | 0.00 | 0.00 | 93 | 1013.1 | |
| 20260507225227 | 73 | 0.0 | 0.0 | 0.00 | 0.00 | 0.00 | 94 | 1013.1 | |
| 20260507224217 | 73 | 0.0 | 0.0 | 0.00 | 0.00 | 0.00 | 94 | 1012.6 | |
| 20260507223206 | 73 | 0.0 | 0.0 | 0.00 | 0.00 | 0.00 | 94 | 1012.5 | |
| 20260507222156 | 73 | 0.0 | 0.0 | 0.00 | 0.00 | 0.00 | 94 | 1012.5 | |
| 20260507221145 | 73 | 0.0 | 0.0 | 0.00 | 0.00 | 0.00 | 94 | 1012.5 | |
| 20260507220135 | 0 | 0.0 | 0.0 | 0.00 | 0.00 | 0.00 | |||
| 20260507215125 | 73 | 0.0 | 0.0 | 0.00 | 0.00 | 0.00 | 93 | 1012.1 | |
| 20260507214114 | 73 | 0.0 | 0.0 | 0.00 | 0.00 | 0.00 | 92 | 1012.1 | |
| 20260507213104 | 73 | 0.0 | 0.0 | 0.00 | 0.00 | 0.00 | 93 | 1012.1 | |
| 20260507212053 | 73 | 0.0 | 0.0 | 0.00 | 0.00 | 0.00 | 93 | 1011.8 | |
| 20260507211041 | 73 | 0.0 | 0.0 | 0.00 | 0.00 | 0.00 | 92 | 1011.8 | |
| 20260507210031 | 73 | 0.0 | 0.0 | 0.00 | 0.00 | 0.00 | 92 | 1011.6 | |
| 20260507205020 | 73 | 0.0 | 0.0 | 0.00 | 0.00 | 0.00 | 92 | 1011.3 | |
| 20260507204009 | 73 | 0.0 | 0.0 | 0.00 | 0.00 | 0.00 | 92 | 1011.2 | |
| 20260507202956 | 73 | 0.0 | 0.0 | 0.00 | 0.00 | 0.00 | 92 | 1011.2 | |
| 20260507201945 | 73 | 0.0 | 0.0 | 0.00 | 0.00 | 0.00 | 93 | 1011.2 | |
| 20260507200935 | 73 | 0.0 | 0.0 | 0.00 | 0.00 | 0.00 | 93 | 1011.1 | |
| 20260507195924 | 73 | 0.0 | 0.0 | 0.00 | 0.00 | 0.00 | 92 | 1011.1 | |
| 20260507194913 | 73 | 0.0 | 0.0 | 0.00 | 0.00 | 0.00 | 92 | 1011.1 | |
| 20260507193902 | 73 | 0.0 | 0.0 | 0.00 | 0.00 | 0.00 | 93 | 1011.1 | |
| 20260507192852 | 73 | 0.0 | 0.0 | 0.00 | 0.00 | 0.00 | 92 | 1011.1 | |
| 20260507191841 | 73 | 0.0 | 0.0 | 0.00 | 0.00 | 0.00 | 91 | 1011.2 | |
| 20260507190831 | 73 | 0.0 | 0.0 | 0.00 | 0.00 | 0.00 | 91 | 1011.3 | |
| 20260507185820 | 75 | 0.0 | 0.0 | 0.00 | 0.00 | 0.00 | 91 | 1011.6 | |
| 20260507184810 | 75 | 0.0 | 0.0 | 0.00 | 0.00 | 0.00 | 90 | 1011.6 | |
| 20260507183758 | 75 | 0.0 | 0.0 | 0.00 | 0.00 | 0.00 | 90 | 1011.6 | |
| 20260507182747 | 0 | 0.0 | 0.0 | 0.00 | 0.00 | 0.00 | |||
| 20260507181737 | 75 | 0.0 | 0.0 | 0.00 | 0.00 | 0.00 | 91 | 1011.8 | |
| 20260507180727 | 75 | 0.0 | 0.0 | 0.00 | 0.00 | 0.00 | 90 | 1012.1 | |
| 20260507175716 | 75 | 0.0 | 0.0 | 0.00 | 0.00 | 0.00 | 90 | 1012.1 | |
| 20260507174706 | 75 | 0.0 | 0.0 | 0.00 | 0.00 | 0.00 | 90 | 1012.1 | |
| 20260507173655 | 75 | 0.0 | 0.0 | 0.00 | 0.00 | 0.00 | 89 | 1012.1 | |
| 20260507172644 | 0 | 0.0 | 0.0 | 0.00 | 0.00 | 0.00 | |||
| 20260507171634 | 75 | 0.0 | 0.0 | 0.00 | 0.00 | 0.00 | 88 | 1012.2 | |
| 20260507170624 | 75 | 0.0 | 0.0 | 0.00 | 0.00 | 0.00 | 88 | 1012.2 | |
| 20260507165613 | 75 | 0.0 | 0.0 | 0.00 | 0.00 | 0.00 | 88 | 1012.5 | |
| 20260507164603 | 75 | 0.0 | 0.0 | 0.00 | 0.00 | 0.00 | 88 | 1012.5 | |
| 20260507163552 | 75 | 0.0 | 0.0 | 0.00 | 0.00 | 0.00 | 87 | 1012.5 | |
| 20260507162542 | 75 | 0.0 | 0.0 | 0.00 | 0.00 | 0.00 | 87 | 1012.5 | |
| 20260507161531 | 75 | 0.0 | 0.0 | 0.00 | 0.00 | 0.00 | 87 | 1012.6 | |
| 20260507160521 | 75 | 0.0 | 0.0 | 0.00 | 0.00 | 0.00 | 86 | 1012.5 | |
| 20260507155509 | 75 | 0.0 | 0.0 | 0.00 | 0.00 | 0.00 | 85 | 1012.5 | |
| 20260507154455 | 75 | 0.0 | 0.0 | 0.00 | 0.00 | 0.00 | 86 | 1012.5 | |
| 20260507153444 | 75 | 0.0 | 0.0 | 0.00 | 0.00 | 0.00 | 86 | 1012.6 | |
| 20260507152434 | 75 | 0.0 | 0.0 | 0.00 | 0.00 | 0.00 | 85 | 1012.6 | |
| 20260507151424 | 75 | 0.0 | 0.0 | 0.00 | 0.00 | 0.00 | 85 | 1012.6 | |
| 20260507150413 | 75 | 0.0 | 0.0 | 0.00 | 0.00 | 0.00 | 86 | 1012.7 | |
| 20260507145401 | 75 | 0.0 | 0.0 | 0.00 | 0.00 | 0.00 | 86 | 1012.6 | |
| 20260507144351 | 75 | 0.0 | 0.0 | 0.00 | 0.00 | 0.00 | 86 | 1012.6 | |
| 20260507143340 | 75 | 0.0 | 0.0 | 0.00 | 0.00 | 0.00 | 86 | 1012.5 | |
| 20260507142329 | 75 | 0.0 | 0.0 | 0.00 | 0.00 | 0.00 | 86 | 1012.5 | |
| 20260507141319 | 75 | 0.0 | 0.0 | 0.00 | 0.00 | 0.00 | 86 | 1012.1 | |
| 20260507140308 | 75 | 0.0 | 0.0 | 0.00 | 0.00 | 0.00 | 86 | 1012.1 | |
| 20260507135257 | 75 | 0.0 | 0.0 | 0.00 | 0.00 | 0.00 | 85 | 1011.8 | |
| 20260507134247 | 77 | 0.0 | 0.0 | 0.00 | 0.00 | 0.00 | 85 | 1011.8 | |
| 20260507133235 | 77 | 0.0 | 0.0 | 0.00 | 0.00 | 0.00 | 86 | 1011.6 | |
| 20260507132225 | 77 | 0.0 | 0.0 | 0.00 | 0.00 | 0.00 | 85 | 1011.6 | |
| 20260507131214 | 77 | 0.0 | 0.0 | 0.00 | 0.00 | 0.00 | 86 | 1011.3 | |
| 20260507130203 | 77 | 0.0 | 0.0 | 0.00 | 0.00 | 0.00 | 85 | 1011.3 | |
| 20260507125153 | 77 | 0.0 | 0.0 | 0.00 | 0.00 | 0.00 | 84 | 1011.2 | |
| 20260507124143 | 77 | 0.0 | 0.0 | 0.00 | 0.00 | 0.00 | 84 | 1011.1 | |
| 20260507123132 | 77 | 0.0 | 0.0 | 0.00 | 0.00 | 0.00 | 83 | 1011.1 | |
| 20260507122122 | 77 | 0.0 | 0.0 | 0.00 | 0.00 | 0.00 | 83 | 1011.0 | |
| 20260507121111 | 79 | 0.0 | 0.0 | 0.00 | 0.00 | 0.00 | 83 | 1011.0 | |
| 20260507120100 | 79 | 0.0 | 0.0 | 0.00 | 0.00 | 0.00 | 83 | 1010.7 | |
| 20260507115049 | 79 | 0.0 | 0.0 | 0.00 | 0.00 | 0.00 | 81 | 1010.6 | |
| 20260507114039 | 79 | 0.0 | 0.0 | 0.00 | 0.00 | 0.00 | 80 | 1010.1 | |
| 20260507113028 | 79 | 0.0 | 0.0 | 0.00 | 0.00 | 0.00 | 78 | 1010.1 | |
| 20260507112018 | 79 | 0.0 | 0.0 | 0.00 | 0.00 | 0.00 | 79 | 1010.1 | |
| 20260507111006 | 79 | 0.0 | 0.0 | 0.00 | 0.00 | 0.00 | 77 | 1010.1 | |
| 20260507105953 | 81 | 0.0 | 0.0 | 0.00 | 0.00 | 0.00 | 76 | 1010.1 | |
| 20260507104942 | 81 | 0.0 | 0.0 | 0.00 | 0.00 | 0.00 | 75 | 1010.1 | |
| 20260507103931 | 81 | 0.0 | 0.0 | 0.00 | 0.00 | 0.00 | 73 | 1010.0 | |
| 20260507102920 | 81 | 0.0 | 0.0 | 0.00 | 0.00 | 0.00 | 72 | 1009.8 | |
| 20260507101910 | 0 | 0.0 | 0.0 | 0.00 | 0.00 | 0.00 | |||
| 20260507100859 | 82 | 0.0 | 0.0 | 0.00 | 0.00 | 0.00 | 72 | 1009.7 | |
| 20260507095849 | 82 | 0.0 | 0.0 | 0.00 | 0.00 | 0.00 | 71 | 1009.6 | |
| 20260507094838 | 82 | 0.0 | 0.0 | 0.00 | 0.00 | 0.00 | 71 | 1009.6 | |
| 20260507093827 | 82 | 0.0 | 0.0 | 0.00 | 0.00 | 0.00 | 74 | 1009.6 | |
| 20260507092817 | 82 | 0.0 | 0.0 | 0.00 | 0.00 | 0.00 | 72 | 1009.6 | |
| 20260507091806 | 82 | 0.0 | 0.0 | 0.00 | 0.00 | 0.00 | 72 | 1009.6 | |
| 20260507090756 | 82 | 0.0 | 0.0 | 0.00 | 0.00 | 0.00 | 69 | 1009.6 | |
| 20260507085745 | 84 | 0.0 | 0.0 | 0.00 | 0.00 | 0.00 | 67 | 1009.6 | |
| 20260507084735 | 86 | 0.0 | 0.0 | 0.00 | 0.00 | 0.00 | 67 | 1009.6 | |
| 20260507083724 | 86 | 0.0 | 0.0 | 0.00 | 0.00 | 0.00 | 66 | 1009.6 | |
| 20260507082714 | 86 | 0.0 | 0.0 | 0.00 | 0.00 | 0.00 | 64 | 1009.5 | |
| 20260507081704 | 86 | 0.0 | 0.0 | 0.00 | 0.00 | 0.00 | 63 | 1009.6 | |
| 20260507080653 | 86 | 0.0 | 0.0 | 0.00 | 0.00 | 0.00 | 64 | 1009.8 | |
| 20260507075643 | 86 | 0.0 | 0.0 | 0.00 | 0.00 | 0.00 | 64 | 1009.8 | |
| 20260507074632 | 0 | 0.0 | 0.0 | 0.00 | 0.00 | 0.00 | |||
| 20260507073622 | 86 | 0.0 | 0.0 | 0.00 | 0.00 | 0.00 | 63 | 1010.1 | |
| 20260507072610 | 86 | 0.0 | 0.0 | 0.00 | 0.00 | 0.00 | 65 | 1010.1 | |
| 20260507071558 | 88 | 0.0 | 0.0 | 0.00 | 0.00 | 0.00 | 60 | 1010.1 | |
| 20260507070546 | 86 | 0.0 | 0.0 | 0.00 | 0.00 | 0.00 | 64 | 1010.1 | |
| 20260507065535 | 86 | 0.0 | 0.0 | 0.00 | 0.00 | 0.00 | 62 | 1010.2 | |
| 20260507064523 | 88 | 0.0 | 0.0 | 0.00 | 0.00 | 0.00 | 62 | 1010.5 | |
| 20260507063512 | 86 | 0.0 | 0.0 | 0.00 | 0.00 | 0.00 | 63 | 1010.6 | |
| 20260507062502 | 86 | 0.0 | 0.0 | 0.00 | 0.00 | 0.00 | 62 | 1010.6 | |
| 20260507061451 | 88 | 0.0 | 0.0 | 0.00 | 0.00 | 0.00 | 62 | 1010.7 | |
| 20260507060439 | 88 | 0.0 | 0.0 | 0.00 | 0.00 | 0.00 | 63 | 1010.8 | |
| 20260507055428 | 86 | 0.0 | 0.0 | 0.00 | 0.00 | 0.00 | 63 | 1011.0 | |
| 20260507054418 | 86 | 0.0 | 0.0 | 0.00 | 0.00 | 0.00 | 66 | 1011.1 | |
| 20260507053407 | 86 | 0.0 | 0.0 | 0.00 | 0.00 | 0.00 | 64 | 1011.1 | |
| 20260507052356 | 86 | 0.0 | 0.0 | 0.00 | 0.00 | 0.00 | 63 | 1011.2 | |
| 20260507051346 | 86 | 0.0 | 0.0 | 0.00 | 0.00 | 0.00 | 63 | 1011.1 |